691  
ASUS41 KBTV 171130  
RWRBTV  
VERMONT REGIONAL WEATHER ROUNDUP  
NATIONAL WEATHER SERVICE BURLINGTON VT  
700 AM EDT WED OCT 17 2018  
 
NOTE: "FAIR" INDICATES FEW OR NO CLOUDS BELOW 12,000 FEET WITH NO  
SIGNIFICANT WEATHER AND/OR S TO VISIBILITY
.  
 
* THESE REPORTS ARE NOT UNDER NWS QUALITY CONTROL AND/OR DO NOT  
REPORT WEATHER SUCH AS PRECIPITATION AND FOG.
 
 
VTZ001>019-171200-  
_____VERMONT_____  
 
 
CITY SKY/WX TMP DP RH WIND PRES REMARKS
 
BURLINGTON CLOUDY 46 35 65 S12 29.79F  
MONTPELIER LGT RAIN 43 36 76 SW8 29.82F  
MORRISVILLE LGT RAIN 44 36 73 SW6 29.78F  
ST. JOHNSBURY* N/A 38 37 97 MISG 29.79F  
LYNDONVILLE* DRIZZLE 38 34 87 SE8 29.79F WCI 32  
MIDDLEBURY* CLOUDY 44 33 65 S8 29.82F  
RUTLAND* CLOUDY 44 34 67 SE8 29.85F  
SPRINGFIELD MOCLDY 34 34 100 CALM 29.87F  
HIGHGATE* CLOUDY 46 36 68 S9 29.74F  
NEWPORT* LGT RAIN 38 37 92 S6 29.76F  
BENNINGTON CLOUDY 36 34 92 CALM 29.88S  
ISLAND POND* N/A 39 N/A N/A SW3 N/A  
GALLUP MILLS* N/A 34 N/A N/A MISG N/A  
LAKE EDEN* N/A 39 N/A N/A CALM N/A  
MT. MANSFIELD* N/A 30 N/A N/A SW31 N/A WCI 15  
 
_____LAKE CHAMPLAIN_____  
 
 
CITY SKY/WX TMP DP RH WIND PRES REMARKS
 
BURTON ISLAND* N/A 50 41 71 S23G33 N/A  
COLCHESTER RF* N/A 48 39 71 S24 N/A  
DIAMOND ISL* N/A 46 36 66 SE17 N/A  
 

 
 
NYZ007-026>031-035-052-083-087-171200-  
_____NORTHERN NEW YORK_____  
 
 
CITY SKY/WX TMP DP RH WIND PRES REMARKS
 
PLATTSBURGH CLOUDY 47 36 65 S7 29.76F  
SARANAC LAKE LGT RAIN 39 38 96 SW12 29.75F WCI 32  
MASSENA CLOUDY 47 40 76 SW10G20 29.75S  
OGDENSBURG* MOCLDY 49 37 64 SW8G16 29.76S  
POTSDAM* CLOUDY 45 39 81 SW12 29.76R  
STARK FALLS* N/A 43 N/A N/A SW9 N/A  
WATERTOWN MOCLDY 49 39 68 W17 29.79S  
FT DRUM FAIR 43 43 100 SW7 29.78R  
ALBANY CLOUDY 43 36 76 S7 29.92S  
GLENS FALLS CLOUDY 40 37 89 S10 29.87F  
 

 
NHZ002-005-011-171200-  
_____NEW HAMPSHIRE_____  
 
 
CITY SKY/WX TMP DP RH WIND PRES REMARKS
 
LEBANON MOCLDY 41 33 73 CALM 29.85R  
KEENE FAIR 33 33 100 CALM 29.90F  
MT WASHINGTON SNOWSHWR 23 23 100 W46 N/A VSB 0 WCI 2  
PLYMOUTH CLOUDY 33 33 98 CALM 29.86S  
WHITEFIELD LGT RAIN 35 34 96 CALM 29.81F  
 

 
 
_____REGIONAL QUEBEC LOCATIONS_____  
 
 
CITY SKY/WX TMP DP RH WIND PRES REMARKS
 
MONTREAL LGT RAIN 48 39 71 SW23G29 29.69F  
QUEBEC CITY LGT RAIN 43 39 87 W5 29.66F  
SHERBROOKE PTCLDY 41 36 81 S9G18 29.70F  
 
_____REGIONAL ONTARIO LOCATIONS_____  
 
 
CITY SKY/WX TMP DP RH WIND PRES REMARKS
 
OTTAWA CLOUDY 45 37 76 SW10 29.72S  
 
______KEY______  
VSB - VISIBILITY IN MILES  
WCI - WIND CHILL INDEX  
HX - HEAT INDEX  

 
NNNN  
 
 
CLICK HERE TO GO TO PREVIOUS BULLETINS.

The Nexlab VT Page
The Nexlab NY Page Main Text Page